Location: Alincthun
(50.7310°N, 1.8022°E)
Time: 06:18:13
(UTC+00:00)

SJ-12 - Pass Details

Date: 17 February 2020
Orbit: 570 x 584 km, 97.7° (Epoch: 28 March)

Event Time Altitude Azimuth Distance (km) Brightness Sun altitude
Rises 05:52:32 0° 8° (N) 2,811 7.5 -11.6°
Reaches altitude 10° 05:54:46 10° 1° (N) 1,909 6.5 -11.3°
Maximum altitude 05:58:39 40° 292° (WNW) 864 4.3 -10.7°
Drops below altitude 10° 06:02:31 10° 222° (SW) 1,902 6.2 -10.1°
Sets 06:04:45 0° 215° (SW) 2,798 7.1 -9.7°
